Weather History for Binghamton, NY

Change the Weather History Date:

Tuesday, November 8, 2011

  Actual Average Record
Temperature  
Mean Temperature 60 °F 41 °F  
Max Temperature 66 °F 48 °F 67 °F (1975)
Min Temperature 53 °F 34 °F 17 °F (1976)
Degree Days  
Heating Degree Days 5 24  
Month to date heating degree days 157 183  
Since 1 July heating degree days 773 955  
Cooling Degree Days 0 0  
Month to date cooling degree days 0 0  
Year to date cooling degree days 527 381  
Growing Degree Days 10 (Base 50)    
Moisture  
Dew Point 45 °F    
Average Humidity 63    
Maximum Humidity 77    
Minimum Humidity 48    
Precipitation  
Precipitation 0.00 in 0.11 in 2.62 in (1972)
Month to date precipitation 0.00 0.89  
Year to date precipitation 61.86 34.06  
Snow  
Snow 0.00 in 0.10 in 1.70 in (2004)
Month to date snowfall 0.0 0.8  
Since 1 July snowfall 2.6 1.8  
Since 1 September snowfall 2.6 1.8  
Snow Depth 0.00 in    
Sea Level Pressure  
Sea Level Pressure 30.23 in    
Wind  
Wind Speed 5 mph (SW)    
Max Wind Speed 12 mph    
Max Gust Speed 15 mph    
Visibility 10 miles    
Events      
T = Trace of Precipitation, MM = Missing Value Source: NWS Daily Summary

Daily Weather History Graph

Daily Weather History Graph

Search for Another Location

Airport:

Trip Planner

Search our weather history database for the weather conditions in past years. The results will help you decide how hot, cold, wet, or windy it might be!

Date:

Astronomy

Nov. 08, 2011 Rise Set
Actual Time 6:45 AM EST 4:49 PM EST
Civil Twilight 6:15 AM EST 5:19 PM EST
Nautical Twilight 5:42 AM EST 5:52 PM EST
Astronomical Twilight 5:09 AM EST 6:25 PM EST
Moon 3:29 PM EST (11/8) 4:40 AM EST (11/8)
Length of Visible Light 11h 03m
Length of Day
10h 04m
Waxing Gibbous, 96% of the Moon is Illuminated
Nov 8
Waxing Gibbous
Nov 10
Full
Nov 18
Last Quarter
Nov 25
New
Dec 2
First Quarter

Hourly Weather History & Observations

Time (EST) Temp. Dew Point Humidity Pressure Visibility Wind Dir Wind Speed Gust Speed Precip Events Conditions
12:30 AM 53.6 °F 44.6 °F 72% 30.27 in 10.0 mi SW 4.6 mph - N/A   Mostly Cloudy
12:53 AM 54.0 °F 45.0 °F 72% 30.26 in 10.0 mi SW 4.6 mph - N/A   Overcast
1:11 AM 53.6 °F 44.6 °F 72% 30.26 in 10.0 mi SW 4.6 mph - N/A   Overcast
1:53 AM 54.0 °F 46.0 °F 75% 30.27 in 10.0 mi WSW 4.6 mph - N/A   Overcast
2:53 AM 53.1 °F 45.0 °F 74% 30.26 in 10.0 mi West 3.5 mph - N/A   Overcast
3:53 AM 53.1 °F 45.0 °F 74% 30.26 in 10.0 mi Calm Calm - N/A   Overcast
4:53 AM 53.1 °F 45.0 °F 74% 30.27 in 10.0 mi WSW 3.5 mph - N/A   Overcast
5:53 AM 53.1 °F 44.1 °F 71% 30.26 in 10.0 mi Calm Calm - N/A   Overcast
6:31 AM 53.6 °F 44.6 °F 72% 30.26 in 10.0 mi Calm Calm - N/A   Overcast
6:53 AM 53.1 °F 44.1 °F 71% 30.27 in 10.0 mi Calm Calm - N/A   Overcast
7:53 AM 54.0 °F 44.1 °F 69% 30.28 in 10.0 mi SW 4.6 mph - N/A   Mostly Cloudy
8:53 AM 57.0 °F 45.0 °F 64% 30.28 in 10.0 mi SW 4.6 mph - N/A   Clear
9:53 AM 59.0 °F 46.0 °F 62% 30.27 in 10.0 mi SW 5.8 mph - N/A   Clear
10:53 AM 60.1 °F 46.9 °F 62% 30.27 in 10.0 mi SSW 6.9 mph - N/A   Clear
11:53 AM 63.0 °F 46.9 °F 56% 30.24 in 10.0 mi SW 8.1 mph - N/A   Clear
12:36 PM 64.4 °F 46.4 °F 52% 30.23 in 10.0 mi SSW 8.1 mph - N/A   Clear
12:53 PM 64.9 °F 46.9 °F 52% 30.22 in 10.0 mi SSW 4.6 mph - N/A   Clear
1:53 PM 66.2 °F 46.4 °F 49% 30.21 in 10.0 mi SSW 8.1 mph - N/A   Clear
2:53 PM 66.0 °F 46.9 °F 50% 30.19 in 10.0 mi SW 6.9 mph - N/A   Clear
3:53 PM 64.9 °F 46.0 °F 50% 30.19 in 10.0 mi SSW 5.8 mph - N/A   Clear
4:53 PM 62.1 °F 46.0 °F 56% 30.19 in 10.0 mi South 5.8 mph - N/A   Clear
5:53 PM 60.1 °F 46.0 °F 60% 30.20 in 10.0 mi South 4.6 mph - N/A   Clear
6:53 PM 59.0 °F 44.1 °F 58% 30.20 in 10.0 mi SSW 6.9 mph - N/A   Clear
7:53 PM 59.0 °F 43.0 °F 55% 30.19 in 10.0 mi SSW 8.1 mph - N/A   Clear
8:53 PM 57.0 °F 43.0 °F 59% 30.20 in 10.0 mi SSW 5.8 mph - N/A   Clear
9:53 PM 55.9 °F 42.1 °F 60% 30.20 in 10.0 mi SSW 5.8 mph - N/A   Clear
10:53 PM 55.0 °F 42.1 °F 62% 30.19 in 10.0 mi SSW 6.9 mph - N/A   Clear
11:53 PM 53.6 °F 42.8 °F 67% 30.18 in 10.0 mi SSW 5.8 mph - N/A   Clear